Location: ?????
(38.2579°N, 22.9711°E)
Time: 05:50:20
(UTC+00:00)

Cosmos 2058 Rocket - Pass Details

Date: 13 December 2025
Orbit: 603 x 633 km, 82.5° (Epoch: 20 January)

Event Time Altitude Azimuth Distance (km) Brightness Sun altitude
Rises 16:36:56 0° 191° (SSW) 2,908 6.9 -16.8°
Reaches altitude 10° 16:39:10 10° 194° (SSW) 2,007 6.1 -17.2°
Maximum altitude 16:43:36 70° 277° (W) 676 3.4 -18.1°
Drops below altitude 10° 16:48:05 10° 2° (N) 2,023 5.5 -18.9°
Enters shadow 16:49:11 - 4° (N) 2,462 5.9 -19.1°
